Location: Владивосток
(43.1151°N, 131.8856°E)
Time: 14:23:15
(UTC+10:00)

LO-87 - Pass Details

Date: 05 July 2022
Orbit: 450 x 466 km, 97.4° (Epoch: 17 August)

Event Time Altitude Azimuth Distance (km) Brightness Sun altitude
Exits shadow 01:33:22 20° 292° (WNW) 1,145 ? -23.9°
Drops below altitude 10° 01:35:07 10° 319° (NW) 1,622 ? -23.9°
Sets 01:37:30 0° 334° (NNW) 2,508 ? -23.9°
